#timestamp,LO_Frequency,Hit,StdDev 
1640491215.0,286047001.2,N
1640491215.9,286047001.2,N
1640491235.8,286047000.4,N
1640491255.6,286047000.7,N
1640491275.4,286047000.5,N
1640491295.3,286046998.7,N
1640491315.1,286046999.0,N
1640491335.9,286046998.2,N
1640491355.7,286046999.1,N
1640491375.5,286046999.4,N
1640491395.4,286046998.5,N
1640491415.2,286046998.4,N
1640491435.1,286046999.2,N
1640491436.0,286046999.2,N
1640491455.8,286046999.1,N
1640491475.7,286047001.1,N
1640491495.5,286046998.5,N
1640491515.3,286046998.6,N
1640491535.2,286047000.5,N
1640491555.0,286047000.9,N
1640491555.9,286047000.9,N
1640491575.8,286047001.0,N
1640491595.6,286047000.3,N
1640491615.4,286047000.3,N
1640491635.3,286046998.5,N
1640491655.1,286047001.1,N
1640491675.9,286047000.5,N
1640491695.7,286047000.6,N
1640491715.5,286047000.8,N
1640491735.4,286046998.5,N
1640491755.2,286046999.2,N
1640491775.0,286047001.2,N
1640491776.0,286047001.2,N
1640491795.8,286047001.0,N
1640491815.6,286046998.3,N
1640491835.5,286047001.2,N
1640491855.3,286046998.4,N
1640491875.1,286046998.4,N
1640491895.9,286047001.2,N
1640491915.7,286047000.8,N
1640491935.6,286046998.7,N
1640491955.4,286046999.0,N
1640491975.2,286046999.0,N
1640491995.1,286046997.4,N
1640491996.0,286046997.4,N
1640492015.8,286046996.7,N
1640492035.6,286046999.1,N
1640492055.5,286046999.6,N
1640492075.3,286046996.8,N
1640492095.2,286046997.0,N
1640492115.9,286046996.6,N
1640492135.7,286046997.4,N
1640492155.6,286046996.6,N
1640492175.4,286046998.8,N
1640492195.2,286046999.2,N
1640492215.1,286046996.6,N
1640492216.0,286046996.6,N
1640492235.8,286046997.5,N
1640492255.7,286046995.8,N
1640492275.5,286046995.1,Y
1640492295.3,286046997.7,P
1640492315.2,286046997.3,P
1640492335.0,286046996.6,P
1640492335.9,286046996.6,Y
1640492355.8,286047001.0,P
1640492375.6,286047001.1,N
1640492395.4,286046998.5,N
1640492415.3,286046998.1,N
1640492435.1,286046998.1,N
1640492455.8,286046998.6,N
1640492475.7,286046998.2,N
1640492495.5,286046998.5,N
1640492515.4,286047000.8,N
1640492535.2,286047002.8,N
1640492555.0,286046999.7,N
1640492555.9,286046999.7,N
1640492575.8,286047002.5,N
1640492595.6,286047002.1,N
1640492615.5,286047002.4,N
1640492635.3,286046999.8,N
1640492655.1,286047000.2,N
1640492675.9,286047000.3,N
1640492695.7,286047000.0,N
1640492715.5,286046999.7,N
1640492735.4,286047002.5,N
1640492755.2,286047002.4,N
1640492775.1,286047002.2,N
1640492776.0,286047002.2,N
1640492795.8,286047002.4,N
1640492815.6,286046999.7,N
1640492835.5,286047002.7,N
1640492855.3,286047000.0,N
1640492875.2,286047000.1,N
1640492895.9,286047000.9,N
1640492915.7,286047000.7,N
1640492935.6,286047000.0,N
1640492955.4,286047000.1,N
1640492975.2,286047000.6,N
1640492995.1,286047000.0,N
1640492996.0,286047000.0,N
1640493015.8,286047000.3,N
1640493035.7,286047001.0,N
1640493055.5,286046999.9,N
1640493075.3,286047001.0,N
1640493095.2,286046998.2,N
1640493115.0,286046998.5,N
1640493115.9,286046998.5,N
1640493135.7,286046999.4,N
1640493155.6,286046996.6,N
1640493175.4,286046999.5,N
1640493195.3,286046999.6,N
1640493215.1,286046996.5,N
1640493235.8,286046997.0,N
1640493255.7,286046999.5,N
1640493275.5,286046997.5,N
1640493295.4,286046995.7,N
1640493315.2,286046995.6,N
1640493335.0,286046995.4,N
1640493335.9,286046995.4,N
1640493355.8,286046994.9,N
1640493375.6,286046997.7,N
1640493395.4,286046997.8,N
1640493415.3,286046997.6,N
1640493435.1,286046995.0,N
1640493455.9,286046996.8,N
1640493475.7,286046997.4,N
1640493495.6,286046996.5,N
1640493515.4,286046996.8,N
1640493535.2,286046996.8,N
1640493555.1,286046995.4,N
1640493556.0,286046995.4,N
1640493575.8,286046998.8,N
1640493595.7,286046996.8,N
1640493615.5,286046995.0,Y
1640493635.3,286047000.9,P
1640493655.2,286046999.8,N
1640493675.0,286047002.4,N
1640493675.9,286047002.4,N
1640493695.8,286047002.1,N
1640493715.6,286047002.6,N
1640493735.4,286046999.9,N
1640493755.3,286047002.7,N
1640493775.1,286047000.8,N
1640493795.8,286047000.8,N
1640493815.7,286047000.7,N
1640493835.5,286047000.4,N
1640493855.4,286047000.7,N
1640493875.2,286046999.9,N
1640493895.0,286046999.7,N
1640493895.9,286046999.7,N
1640493915.8,286047001.5,N
1640493935.6,286047003.5,N
1640493955.5,286047003.6,N
1640493975.3,286047001.3,N
1640493995.1,286047003.9,N
1640494015.9,286047004.0,N
1640494035.7,286047001.5,N
1640494055.5,286047003.8,N
1640494075.4,286047003.4,N
1640494095.2,286047003.1,N
1640494115.1,286047005.7,Y
1640494116.0,286047005.7,P
1640494135.8,286047002.7,N
1640494155.6,286047002.7,N
1640494175.5,286047000.3,N
1640494195.3,286047001.6,N
1640494215.1,286047001.9,N
1640494235.9,286047002.5,N
1640494255.7,286047002.3,N
1640494275.6,286047002.0,N
1640494295.4,286047002.6,N
1640494315.2,286047001.6,N
1640494335.1,286047001.4,N
1640494336.0,286047001.4,N
1640494355.8,286047003.6,Y
1640494375.6,286047000.3,P
1640494395.5,286046999.7,N
1640494415.3,286047000.1,N
1640494435.2,286047001.6,N
1640494455.9,286047002.0,N
1640494475.7,286047001.3,N
1640494495.6,286047002.7,N
1640494515.4,286047001.6,N
1640494535.3,286047001.9,N
1640494555.1,286047001.5,N
1640494575.8,286047002.7,N
1640494595.7,286047002.1,N
1640494615.5,286047002.3,N
1640494635.4,286047003.9,Y
1640494655.2,286046999.9,P
1640494675.0,286047002.0,N
1640494675.9,286047002.0,N
1640494695.8,286047004.3,Y
1640494715.6,286047001.5,P
1640494735.4,286047002.2,P
1640494755.3,286047000.3,N
1640494775.1,286047000.2,N
1640494795.9,286047001.0,N
